Temperature
21 21 22 22 22 21 20 20 20 21 20 20 20 19 19 19 19 20 20 20 20 20 20 20 20 19 19 19 18 18 18 17 17 17 16 16 16 16 16 15 15 15 15 15
21 22 22 22 22 21 21 21 20 21 20 20 19 19 19 19 19 19 19 20 20 20 20 19 19 19 19 19 18 18 17 17 17 16 16 16 16 16 15 15 15 15 15 15
19 20 22 21 21 21 21 21 20 21 20 19 18 18 18 19 19 19 19 20 20 20 20 19 19 19 19 18 18 18 17 17 17 16 16 16 16 15 15 15 15 15 15 14
17 20 21 20 20 21 21 20 20 19 19 18 18 19 19 20 20 20 20 20 20 20 19 19 19 19 18 18 18 17 17 17 16 16 16 16 16 15 15 15 15 15 14 14
16 18 20 20 20 20 20 20 19 18 18 18 18 18 18 19 20 20 20 20 20 19 19 19 18 18 18 17 17 17 17 17 16 16 16 15 15 15 15 14 14 14 14 14
16 19 19 20 20 20 20 19 18 17 17 17 17 17 18 19 19 20 20 20 19 19 19 18 18 18 17 17 17 17 17 16 16 16 15 15 15 15 14 14 14 14 13 13
16 17 18 18 19 20 20 19 18 18 17 17 16 17 18 18 19 19 19 19 19 19 18 18 18 17 17 17 17 16 16 16 16 15 15 15 14 14 14 13 13 13 13 13
15 17 18 17 18 18 17 17 18 17 17 17 17 17 18 18 19 19 19 19 18 18 18 17 17 17 16 16 16 16 16 15 15 15 14 14 14 13 13 13 13 13 13 12
15 16 16 16 16 17 17 17 17 17 17 17 17 17 17 17 18 18 18 18 18 17 17 17 16 16 16 16 15 15 15 14 14 14 14 13 13 13 13 12 12 12 12 12
14 15 15 16 17 17 18 18 18 18 17 17 17 17 16 17 17 17 17 17 16 16 16 16 16 15 15 15 14 14 14 14 14 13 13 13 13 13 12 12 12 12 12 11
14 14 15 16 17 17 17 18 18 17 17 17 17 16 16 16 16 16 16 16 16 16 16 16 16 15 15 14 14 14 14 14 13 13 13 12 12 12 12 12 12 11 11 11
14 15 14 15 16 17 17 17 17 17 17 17 17 16 16 16 16 16 16 15 15 15 15 15 15 15 14 14 13 13 13 13 13 12 12 12 12 12 11 11 11 11 11 10
16 16 16 16 16 16 16 16 16 16 16 16 16 16 16 15 15 15 15 15 15 15 15 14 14 14 13 13 13 13 13 12 12 12 12 11 11 11 11 11 11 11 10 10
16 16 15 15 15 16 16 16 16 16 16 15 15 15 15 15 15 15 15 14 14 14 14 14 13 13 13 13 12 12 12 12 12 11 11 11 11 11 11 11 10 10 10 10
15 16 15 15 15 15 15 15 15 15 15 15 15 15 14 14 14 14 14 14 14 14 13 13 13 13 12 12 12 12 12 12 11 11 11 11 11 11 11 10 10 10 10 10
15 15 15 15 15 15 15 15 15 14 14 14 14 14 14 14 14 14 14 14 13 13 13 13 13 12 12 12 12 12 11 11 11 11 11 10 10 10 10 10 10 10 10 9
14 14 14 14 14 14 14 14 14 14 14 14 14 14 13 13 13 13 13 13 13 13 13 12 12 12 12 11 11 11 11 11 11 11 10 10 10 10 10 10 10 10 9 9
14 14 14 14 14 14 14 14 14 13 13 13 13 13 13 13 13 13 12 12 12 12 12 12 12 12 11 11 11 11 10 10 10 10 10 10 10 10 9 9 9 9 9 9
14 14 14 14 14 14 14 14 13 13 13 13 13 13 13 12 12 12 12 12 12 12 12 12 11 11 11 11 11 10 10 10 10 10 10 10 9 9 9 9 9 9 9 8
14 14 14 13 14 14 13 13 13 13 13 13 12 12 12 12 12 12 12 12 12 11 11 11 11 11 11 10 10 10 10 10 9 9 9 9 9 9 9 9 8 8 8 8
13 13 13 13 13 13 13 13 13 13 12 12 12 12 12 12 12 12 11 11 11 11 11 11 11 10 10 10 10 10 9 9 9 9 9 9 9 9 9 8 8 8 8 8
13 13 13 13 13 13 13 13 13 12 12 12 12 12 12 12 11 11 11 11 11 11 11 10 10 10 10 10 9 9 9 9 9 9 9 9 9 8 8 8 8 8 8 8
12 12 13 13 13 12 12 12 12 12 12 12 12 12 11 12 12 11 11 11 11 11 10 10 10 10 10 9 9 9 9 9 9 9 9 8 8 8 8 8 8 7 7 7
12 12 12 12 12 12 12 12 12 12 11 11 11 11 11 11 11 11 11 11 10 10 10 10 10 9 9 9 9 9 8 8 8 8 8 8 8 8 8 7 7 7 7 7
12 12 12 12 12 12 12 12 11 11 11 11 11 11 11 11 11 11 11 10 10 10 10 10 9 9 9 9 9 9 8 8 8 8 8 8 8 7 7 7 7 7 7 7
12 12 12 12 12 11 11 11 11 11 11 11 11 11 11 11 10 10 10 10 10 10 10 9 9 9 9 9 9 8 8 8 8 8 8 7 7 7 7 7 7 7 7 7
11 11 11 11 11 11 11 11 11 11 11 11 11 10 10 10 10 10 10 10 9 9 9 9 9 9 9 9 8 8 8 8 8 8 7 7 7 7 7 7 7 7 6 6
Wind_Speed
4 3 3 3 3 5 6 7 7 7 7 8 6 5 4 3 4 5 5 5 5 5 5 5 5 5 5 5 4 4 4 4 3 3 2 2 1 1 1 1 1 1 0 1
1 1 2 2 2 3 3 3 4 3 6 4 2 2 2 4 5 6 6 6 6 5 5 6 6 6 5 4 4 4 4 4 3 2 2 2 2 2 1 1 0 0 0 0
2 2 2 2 4 3 3 3 4 5 5 1 1 2 5 5 6 7 7 6 6 6 6 6 6 6 6 5 4 5 4 4 3 3 2 2 1 1 1 1 1 0 1 1
2 2 4 7 2 2 3 2 1 2 2 2 2 2 2 3 5 5 5 5 5 5 5 4 5 5 5 4 4 4 4 3 2 3 2 2 1 1 1 1 1 1 1 1
4 3 4 5 2 3 3 2 1 1 1 2 2 3 2 1 2 4 4 5 5 5 5 4 4 5 5 4 4 3 3 2 2 2 2 2 2 2 1 1 1 1 1 1
4 4 6 6 3 1 3 3 2 1 2 1 3 1 3 2 0 1 2 3 4 4 5 5 4 5 6 5 4 3 3 2 2 2 2 2 2 2 1 1 1 1 1 1
4 4 6 5 5 1 4 6 3 2 3 3 2 4 2 1 1 2 3 3 4 5 5 4 5 6 6 4 4 3 2 2 2 2 2 2 1 1 1 1 1 0 1 2
4 3 6 4 2 3 4 3 1 2 2 2 1 1 1 1 2 3 3 3 4 4 3 3 4 6 5 3 2 2 3 3 2 1 1 2 2 1 1 1 1 1 1 2
6 6 4 2 2 3 1 1 1 2 1 2 2 1 1 1 1 2 2 2 3 5 4 3 3 5 5 2 2 3 3 2 2 2 2 2 2 1 1 1 0 1 1 2
2 3 3 3 2 2 1 1 1 2 3 3 2 2 1 1 1 1 2 2 3 4 4 3 2 3 3 2 3 3 3 2 2 2 1 1 1 1 1 1 1 1 1 2
2 4 4 3 1 1 2 2 3 3 2 3 4 3 2 2 1 2 2 2 3 4 3 3 3 3 3 3 3 3 2 2 1 1 1 0 0 1 2 2 3 2 2 2
5 5 4 5 3 1 1 1 2 3 2 3 4 3 2 2 1 2 2 2 2 3 3 2 3 3 2 3 3 4 3 2 1 1 1 1 0 1 2 1 1 0 1 2
4 3 3 3 2 1 1 1 2 2 3 3 2 3 3 1 1 2 2 2 2 2 2 2 2 2 2 2 3 3 3 2 1 1 1 1 1 1 1 3 3 2 1 2
3 1 1 1 1 0 2 2 3 3 3 3 3 3 2 2 2 2 1 1 1 2 2 2 2 2 2 2 3 2 2 2 2 1 1 1 1 2 2 1 2 2 3 3
2 2 3 2 0 1 2 4 4 3 2 2 2 2 2 1 1 1 0 1 2 3 2 2 3 3 2 3 3 3 2 2 1 1 1 1 1 1 1 1 1 2 2 3
0 1 2 3 2 1 2 3 3 2 2 1 1 1 1 1 1 1 1 2 3 3 2 2 3 2 2 3 3 2 2 1 1 1 0 0 1 1 1 1 1 1 2 2
3 2 2 2 2 2 2 3 3 4 3 2 2 1 0 1 1 0 1 1 2 2 2 3 3 2 2 2 2 2 1 1 1 0 1 1 1 1 1 1 2 2 3 3
4 4 5 5 5 3 2 2 2 2 3 3 3 2 1 1 1 1 1 0 1 0 1 2 2 2 1 1 2 1 1 1 1 1 1 1 1 2 2 2 2 3 3 3
2 2 2 2 3 3 3 2 2 2 2 3 3 2 2 2 1 1 1 1 1 2 2 1 2 2 1 1 1 1 1 1 1 1 1 1 1 2 2 2 3 3 3 3
2 2 2 2 2 3 3 2 2 2 2 3 3 2 1 1 1 1 1 1 3 3 2 2 2 1 1 1 1 1 1 1 1 1 2 1 2 2 3 3 3 3 3 3
2 2 2 2 1 2 2 3 3 3 2 3 4 4 3 3 2 2 2 2 3 2 2 2 2 2 2 2 1 1 1 1 2 2 2 2 2 3 3 3 3 3 4 3
2 2 2 2 2 1 1 2 3 3 3 2 2 3 3 2 2 2 3 3 3 2 2 2 2 2 1 1 1 1 1 2 2 2 2 2 3 3 3 3 3 4 4 4
2 2 2 2 2 2 1 1 3 3 3 4 4 4 4 4 3 3 3 3 2 3 2 2 3 3 2 1 1 2 2 2 2 2 2 3 3 3 3 4 4 4 4 4
2 2 2 2 2 2 2 1 2 2 2 3 3 4 4 2 2 3 3 3 3 3 2 3 3 3 2 1 1 2 2 2 2 2 3 3 3 3 3 3 4 4 4 5
2 2 2 2 2 2 2 2 1 1 1 0 1 1 2 2 2 2 1 2 2 2 1 1 2 1 1 1 1 2 2 2 2 2 2 2 3 3 3 3 4 4 4 4
1 2 2 3 3 3 3 2 2 2 1 1 1 1 0 0 1 1 1 1 2 1 1 1 1 1 1 1 1 2 2 2 2 2 3 3 3 4 4 4 5 4 4 5
0 1 1 1 1 2 3 3 3 2 2 2 1 1 1 1 1 2 2 1 1 1 1 1 1 1 1 2 2 2 2 2 2 3 3 3 3 4 4 5 5 4 4 5
Wind_Direction
218 223 179 204 210 179 180 185 188 227 229 252 242 222 208 174 156 154 162 166 167 166 164 159 154 156 159 163 165 159 155 174 191 188 178 164 148 145 128 133 170 175 112 360
291 265 180 229 256 198 200 199 216 237 258 263 237 139 149 162 164 175 183 180 174 164 162 168 167 169 171 174 172 161 170 190 193 178 177 181 173 156 149 158 194 165 231 319
228 292 72 249 247 202 202 214 190 217 245 252 145 176 192 192 188 190 190 180 174 174 179 182 181 175 176 182 169 168 179 189 190 186 188 194 174 152 190 220 215 223 275 299
144 114 218 239 255 189 175 217 205 230 261 237 219 217 202 183 188 196 183 176 177 178 179 180 173 167 165 161 162 169 174 183 193 188 191 186 173 202 228 218 213 223 240 264
128 172 260 291 267 168 176 244 250 197 357 40 68 50 3 317 194 191 183 178 176 175 168 157 165 162 150 147 149 155 166 179 194 188 186 184 200 223 225 208 225 250 251 277
128 162 221 242 286 263 134 257 275 165 166 134 96 106 266 299 94 131 125 137 145 142 139 148 154 149 146 151 156 179 189 186 174 166 174 188 205 208 203 183 223 267 340 314
152 201 253 270 303 89 159 243 258 198 190 172 190 218 235 175 124 127 116 123 133 138 146 153 149 142 148 156 180 193 158 131 116 123 149 160 164 171 169 154 105 9 340 329
148 187 254 326 39 152 228 287 225 189 184 165 165 78 69 101 123 117 101 104 119 126 124 126 138 141 138 156 182 144 124 115 108 95 98 108 119 110 108 112 94 345 329 324
187 208 251 295 248 268 213 180 211 174 170 141 126 102 56 59 91 106 114 110 118 128 121 114 129 138 142 156 119 112 113 119 110 86 84 90 114 128 130 126 177 279 304 307
249 270 283 289 297 329 31 166 165 150 148 138 138 136 96 90 87 83 91 101 112 116 117 119 118 117 130 128 120 105 110 117 110 106 82 72 83 151 171 198 221 257 273 287
267 284 319 311 302 346 33 65 90 91 103 126 120 111 104 94 97 96 88 100 122 125 132 147 138 123 119 126 121 120 116 112 119 126 138 117 39 237 224 221 207 207 230 238
226 230 212 252 272 309 90 88 110 106 85 95 115 127 113 107 114 109 106 102 115 126 132 154 140 134 138 143 141 139 139 139 134 154 179 186 224 337 345 312 323 246 226 234
228 237 219 236 276 305 166 146 130 126 135 119 107 120 116 106 104 100 104 112 132 156 147 150 142 147 171 160 154 153 155 164 160 174 200 210 219 230 321 352 10 22 360 332
227 172 217 236 257 295 106 98 92 88 91 110 116 107 101 88 94 105 130 151 135 130 131 141 152 191 196 165 151 148 150 156 157 176 195 217 229 232 223 239 309 329 333 330
253 218 203 201 149 102 108 107 101 96 95 90 110 124 128 130 157 201 207 139 122 125 139 161 179 211 200 167 158 159 156 167 167 179 200 247 250 242 242 237 254 302 330 331
206 99 126 126 131 146 138 135 144 167 157 163 160 165 197 201 207 193 135 146 156 177 194 192 201 206 180 160 156 159 167 173 148 157 200 253 288 280 271 258 263 282 296 302
144 164 171 179 204 197 203 197 190 187 175 184 202 200 137 90 71 124 167 214 196 195 189 187 201 198 177 168 165 174 181 188 137 117 236 247 245 265 271 262 262 269 280 284
204 208 202 200 204 200 215 217 191 185 187 185 171 154 166 170 193 209 237 247 87 67 227 217 193 181 180 174 161 166 171 171 170 206 235 253 273 274 273 272 269 273 289 296
188 197 216 216 205 188 187 189 189 188 181 165 169 188 205 207 198 205 222 160 186 233 259 235 189 179 201 218 153 158 164 174 198 252 251 257 279 281 274 272 274 275 281 288
195 191 198 202 187 182 184 185 172 174 185 169 168 175 198 216 195 194 196 223 235 237 231 202 182 189 207 208 160 162 180 199 226 258 271 268 273 278 277 274 276 276 278 278
202 193 189 182 189 195 189 181 170 185 199 176 183 200 209 213 202 195 194 244 266 236 198 185 182 198 207 202 186 188 198 215 236 250 258 266 273 278 281 282 283 281 278 276
219 193 188 178 169 189 205 189 185 190 185 193 208 194 183 200 210 215 229 231 235 211 188 197 204 203 203 208 214 212 223 236 250 256 257 260 264 271 277 283 284 283 280 277
223 206 196 196 200 200 183 177 180 191 196 206 206 195 196 209 208 204 245 253 219 198 197 219 215 205 197 202 220 229 233 242 251 255 259 264 267 269 273 279 280 281 281 281
218 210 204 194 166 160 184 213 185 195 205 217 210 201 195 205 243 243 234 223 208 198 201 215 216 221 215 208 226 243 242 244 253 259 263 267 267 269 271 274 279 284 284 285
199 188 168 160 171 191 197 186 149 144 135 196 242 231 213 202 213 234 223 208 204 190 216 231 220 233 225 222 232 244 247 247 252 257 259 264 271 273 276 278 280 281 282 283
192 186 196 199 194 187 177 166 172 180 162 161 302 285 246 219 183 197 207 207 210 212 230 247 237 240 247 246 244 251 260 265 268 267 263 266 268 271 276 280 281 279 280 284
156 175 156 155 175 171 164 164 177 192 188 184 219 247 226 196 175 191 200 206 209 213 228 239 241 243 258 268 270 269 267 263 263 265 264 267 269 271 274 278 280 283 285 287
Height
1484 1481 1481 1482 1482 1485 1489 1493 1498 1493 1490 1481 1476 1476 1475 1476 1477 1479 1481 1483 1486 1488 1490 1492 1495 1497 1500 1502 1504 1505 1506 1507 1507 1508 1508 1508 1509 1509 1509 1509 1508 1508 1507 1507
1483 1480 1480 1482 1480 1481 1483 1484 1487 1485 1484 1474 1474 1474 1475 1476 1476 1478 1479 1481 1484 1486 1489 1491 1494 1496 1498 1500 1502 1503 1505 1505 1506 1506 1507 1507 1507 1507 1507 1506 1506 1506 1505 1505
1494 1485 1482 1490 1482 1481 1481 1479 1481 1484 1479 1474 1474 1473 1474 1474 1475 1476 1477 1480 1482 1485 1487 1490 1492 1494 1497 1499 1500 1502 1503 1504 1504 1504 1505 1505 1505 1505 1505 1504 1504 1503 1503 1503
1497 1491 1499 1487 1474 1474 1477 1477 1476 1476 1475 1474 1473 1473 1473 1474 1474 1475 1477 1479 1481 1484 1486 1489 1491 1493 1495 1497 1498 1499 1500 1501 1502 1502 1502 1502 1502 1502 1502 1502 1501 1501 1500 1499
1501 1500 1493 1481 1474 1474 1477 1478 1474 1474 1474 1474 1473 1473 1474 1474 1474 1475 1476 1479 1481 1483 1485 1487 1489 1491 1493 1494 1496 1497 1498 1499 1500 1500 1500 1500 1500 1499 1499 1499 1499 1498 1497 1497
1499 1497 1499 1482 1471 1469 1474 1480 1473 1473 1473 1474 1474 1478 1475 1473 1474 1475 1476 1478 1480 1482 1484 1485 1487 1489 1491 1492 1494 1495 1496 1496 1497 1497 1498 1497 1497 1497 1497 1497 1496 1495 1494 1494
1496 1496 1489 1475 1470 1470 1484 1481 1471 1471 1471 1472 1473 1474 1473 1473 1473 1474 1475 1477 1479 1480 1481 1483 1485 1487 1489 1491 1492 1493 1493 1494 1494 1495 1495 1495 1494 1494 1494 1494 1493 1493 1492 1491
1496 1496 1491 1473 1471 1475 1475 1470 1470 1470 1470 1471 1471 1472 1472 1472 1472 1473 1474 1476 1477 1478 1480 1481 1483 1485 1486 1488 1490 1491 1491 1492 1492 1492 1492 1492 1492 1492 1492 1492 1491 1490 1489 1489
1486 1485 1477 1473 1473 1472 1471 1470 1469 1469 1470 1471 1471 1471 1472 1472 1472 1473 1474 1475 1476 1477 1479 1481 1482 1483 1485 1486 1488 1489 1490 1490 1490 1490 1490 1490 1489 1489 1489 1489 1488 1487 1486 1486
1480 1476 1473 1472 1471 1470 1470 1469 1469 1469 1470 1470 1470 1471 1471 1472 1472 1473 1474 1475 1476 1477 1478 1480 1481 1483 1484 1485 1486 1487 1487 1488 1489 1488 1488 1488 1487 1487 1487 1486 1485 1484 1484 1483
1479 1475 1472 1470 1470 1470 1469 1469 1469 1469 1470 1470 1470 1471 1472 1472 1472 1473 1474 1475 1476 1477 1478 1479 1480 1481 1482 1483 1484 1485 1486 1486 1487 1487 1486 1486 1486 1486 1485 1484 1483 1482 1481 1480
1477 1472 1472 1470 1470 1470 1469 1469 1469 1469 1469 1470 1471 1471 1472 1472 1473 1473 1474 1475 1476 1476 1477 1478 1478 1479 1480 1481 1482 1482 1483 1484 1484 1484 1485 1484 1484 1483 1482 1482 1481 1480 1479 1479
1470 1469 1470 1469 1469 1469 1469 1469 1470 1470 1470 1470 1471 1472 1472 1472 1472 1473 1474 1474 1475 1475 1475 1476 1476 1477 1479 1479 1480 1481 1481 1481 1482 1482 1482 1482 1482 1481 1480 1479 1479 1478 1477 1477
1467 1468 1468 1468 1468 1469 1469 1469 1470 1470 1471 1472 1472 1473 1472 1472 1472 1473 1474 1474 1474 1474 1475 1475 1476 1476 1477 1478 1479 1479 1480 1480 1481 1480 1480 1480 1480 1479 1478 1477 1475 1474 1474 1474
1465 1466 1466 1467 1467 1468 1468 1469 1469 1470 1470 1471 1472 1472 1472 1472 1472 1472 1473 1474 1473 1474 1474 1475 1475 1476 1476 1477 1477 1478 1478 1479 1479 1478 1478 1478 1477 1476 1475 1474 1473 1472 1471 1471
1463 1464 1465 1466 1466 1467 1468 1468 1468 1469 1470 1470 1471 1472 1472 1472 1472 1472 1472 1473 1473 1473 1473 1474 1474 1475 1475 1475 1476 1476 1476 1477 1477 1476 1476 1475 1475 1474 1473 1472 1471 1470 1469 1468
1462 1462 1463 1464 1465 1466 1467 1467 1467 1467 1469 1470 1470 1471 1471 1472 1472 1471 1472 1472 1472 1472 1473 1473 1473 1474 1474 1474 1474 1474 1474 1474 1474 1474 1474 1473 1472 1471 1471 1470 1469 1468 1467 1466
1461 1461 1462 1463 1464 1465 1466 1467 1467 1467 1468 1468 1469 1470 1471 1470 1470 1470 1471 1471 1471 1472 1472 1472 1472 1472 1473 1473 1473 1473 1472 1472 1472 1471 1471 1470 1470 1469 1468 1467 1466 1465 1464 1463
1459 1460 1461 1462 1463 1464 1464 1465 1466 1467 1467 1468 1469 1469 1470 1470 1470 1470 1470 1470 1470 1470 1471 1471 1471 1471 1471 1471 1471 1471 1471 1470 1470 1469 1469 1468 1467 1466 1465 1464 1463 1462 1461 1460
1458 1458 1459 1461 1462 1463 1463 1464 1465 1465 1466 1467 1467 1468 1468 1468 1469 1469 1469 1469 1469 1470 1470 1470 1470 1470 1470 1470 1470 1470 1469 1469 1468 1467 1466 1465 1464 1463 1463 1461 1460 1459 1458 1457
1456 1457 1458 1459 1460 1461 1462 1463 1463 1464 1464 1465 1466 1466 1466 1467 1468 1468 1468 1468 1469 1469 1469 1469 1469 1469 1469 1469 1468 1468 1467 1466 1466 1465 1464 1462 1462 1461 1460 1458 1457 1456 1455 1454
1454 1455 1456 1457 1459 1460 1461 1461 1462 1462 1463 1463 1464 1464 1465 1466 1466 1467 1467 1467 1467 1467 1467 1467 1467 1467 1467 1467 1466 1465 1465 1464 1463 1462 1461 1460 1459 1458 1457 1455 1454 1453 1452 1451
1453 1454 1454 1456 1457 1458 1459 1460 1460 1461 1461 1462 1462 1462 1463 1464 1464 1464 1464 1465 1465 1465 1465 1465 1465 1465 1464 1464 1464 1463 1462 1461 1460 1460 1459 1458 1456 1455 1454 1452 1451 1450 1449 1447
1451 1452 1452 1454 1455 1456 1456 1457 1458 1459 1460 1460 1460 1461 1462 1462 1462 1463 1463 1463 1463 1463 1463 1463 1463 1463 1462 1462 1461 1460 1459 1459 1458 1457 1456 1455 1454 1452 1451 1450 1448 1447 1445 1444
1449 1450 1451 1452 1453 1453 1454 1455 1456 1457 1458 1458 1459 1460 1460 1461 1461 1461 1461 1461 1462 1462 1462 1461 1461 1461 1460 1459 1459 1458 1457 1456 1455 1454 1453 1452 1451 1450 1448 1447 1445 1444 1442 1440
1447 1447 1448 1450 1451 1451 1452 1453 1454 1455 1456 1457 1457 1458 1458 1459 1459 1459 1459 1459 1459 1460 1460 1459 1459 1459 1458 1458 1457 1456 1455 1454 1453 1452 1450 1449 1448 1447 1445 1444 1442 1440 1438 1437
1445 1446 1446 1447 1448 1450 1451 1452 1453 1454 1454 1455 1456 1456 1457 1457 1457 1457 1457 1458 1458 1458 1458 1457 1457 1457 1456 1456 1455 1454 1453 1452 1450 1449 1448 1447 1445 1444 1442 1440 1439 1437 1435 1433